Погода в Климовске

Россия / Республика Коми     61°17′08″N   53°38′52″E
темп.,
°C
ветер,
м/с
пор.,
м/с
влажн.,
%
обл.,
%
осадки,
мм/ч
давл.,
гПа
погр.,
м
26 июля, пн
пн2600:00+12зюз3970100 0.0 1015296
03:00+11зюз3974100 0.0 1015277
06:00+14зюз4965100 0.0 1015495
09:00+14з487286 0.0 1014746
12:00+13зюз4118461 0.2 1014650
15:00+18з485764 0.7 10121554
18:00+12с4894100 1.4 1012390
21:00+10з399882 3.6 1011457
27 июля, вт
вт2700:00+9сз39955 0.0 1012554
03:00+6зсз3109818 0.0 1013360
06:00+8зсз398723 0.0 1013596
09:00+10зсз4871100 0.0 1012958
12:00+10зсз487575 0.0 10131047
15:00+11зсз4107296 0.3 10121142
18:00+11сз277278 0.2 1011995
21:00+7ссз2796100 0.9 1011566
28 июля, ср
ср2800:00+6сз41095100 0.3 1012660
03:00+6сз389677 0.3 1012596
06:00+6сз379177 0.1 1012538
09:00+9сз3564100 0.1 10121201
12:00+11з3554100 0.1 10111651
15:00+11зсз4661100 0.1 10101319
18:00+10зюз1281100 0.3 1009148
21:00+8ююз1297100 0.8 100873
29 июля, чт
чт2900:00+8ююз2498100 0.0 1008117
03:00+8ю129772 0.1 100752
06:00+9ююв139698 0.0 1006145
09:00+15ю126679 0.0 1005804
12:00+16зсз2364100 0.1 10041008
15:00+17зсз245598 0.1 10041090
18:00+17ссв1261100 0.0 100494
21:00+10в228638 0.0 100424
30 июля, пт
пт3000:00+9вюв1190100 0.0 100414
03:00+11вюв1281100 0.0 100356
06:00+12в2585100 0.1 1002157
09:00+15вюв377987 0.2 1001384
12:00+20юв2465100 0.0 1000912
15:00+20юз2581100 1.3 999533
18:00+16зюз2698100 5.5 1000192
21:00+15зюз1298100 7.8 100159